Weather in Niagara Falls

United States     43°05′43″N   79°03′20″W
temp.,
°C
wind,
m/s
gust,
m/s
humid.,
%
clouds,
%
prec.,
mm/h
press.,
hPa
HPBL,
m
7 may, fri
fri723:00+7sw2472100 0.0 1016145
02:00+6wsw1287100 1.4 1016141
05:00+5ne3495100 4.1 1014336
08:00+5ene2394100 7.0 1015462
11:00+5ene3495100 1.8 1014844
14:00+4ne3496100 4.9 1014599
17:00+5e1193100 0.4 1013469
20:00+5ssw1192100 0.4 1013173
8 may, sat
sat823:00+5sw1293100 0.0 1012135
02:00+5nw119165 0.0 101149
05:00+4w2493100 0.0 1011171
08:00+5wnw2589100 0.0 1013266
11:00+11nw344925 0.0 1014858
14:00+14wnw35455 0.0 10131709
17:00+13wsw565746 0.3 10141195
20:00+9w368292 1.8 1016139
9 may, sun
sun923:00+8w2787100 0.6 1018305
02:00+6wsw2486100 0.6 1018173
05:00+4wsw1287100 0.0 101747
08:00+6ssw2377100 0.0 1017248
11:00+10ssw2359100 0.0 10151117
14:00+8s2383100 1.2 1013721
17:00+8e3589100 2.1 1010956
20:00+6ne4896100 5.0 1009457
10 may, mon
mon1023:00+6ne279794 0.3 1010342
02:00+4n269947 0.3 1010190
05:00+3nw26935 0.0 1012148
08:00+5wnw24791 0.0 1014199
11:00+10nw35574 0.0 10141220
14:00+10wsw5664100 0.3 10151273
17:00+9nw367188 1.0 1015922
20:00+8wnw510574 1.3 1017796
11 may, tue
tue1123:00+5nw410660 0.0 1019580
02:00+3wnw411720 0.0 1020455
05:00+2wnw38805 0.0 1021306
08:00+4wnw49725 0.0 1022533
11:00+9wnw695174 0.0 10221813
14:00+11wnw7104284 0.1 10212244
17:00+11nw71144100 0.0 10212229
20:00+9wnw495479 0.1 10231246